Weather History for KSKA - May, 2014

Change the Weather History Date:

Friday, May 9, 2014

  Actual Average Record
Temperature  
Mean Temperature 50 °F -  
Max Temperature 58 °F 61 °F 83 °F (2013)
Min Temperature 42 °F 38 °F 28 °F (1999)
Degree Days  
Heating Degree Days 14    
Moisture  
Dew Point 42 °F    
Average Humidity 81    
Maximum Humidity 100    
Minimum Humidity 37    
Precipitation  
Precipitation 0.25 in - - ()
Sea Level Pressure  
Sea Level Pressure 29.72 in    
Wind  
Wind Speed 12 mph (SSW)    
Max Wind Speed 29 mph    
Max Gust Speed 34 mph    
Visibility 9 miles    
Events Rain    
Averages and records for this station are not official NWS values.
T = Trace of Precipitation, MM = Missing Value Source: NWS Daily Summary

Daily Weather History Graph

Daily Weather History Graph

Search for Another Location

Airport or City:

Trip Planner

Search our weather history database for the weather conditions in past years. The results will help you decide how hot, cold, wet, or windy it might be!

Date:

Astronomy

May. 09, 2014 Rise Set
Actual Time 5:21 AM PDT 8:13 PM PDT
Civil Twilight 4:45 AM PDT 8:49 PM PDT
Nautical Twilight 3:59 AM PDT 9:35 PM PDT
Astronomical Twilight 3:05 AM PDT 10:30 PM PDT
Moon 2:54 PM PDT (5/9) 2:48 AM PDT (5/9)
Length of Visible Light 16h 04m
Length of Day
14h 52m
Waxing Gibbous, 74% of the Moon is Illuminated
May 9
Waxing Gibbous
May 14
Full
May 21
Last Quarter
May 28
New
Jun 5
First Quarter

Hourly Weather History & Observations

Time (PDT) Temp. Windchill Dew Point Humidity Pressure Visibility Wind Dir Wind Speed Gust Speed Precip Events Conditions
12:03 AM 48.2 °F - 46.4 °F 93% 29.66 in 10.0 mi SSE 5.8 mph - N/A Rain Light Rain
12:08 AM 48.2 °F - 48.2 °F 100% 29.66 in 10.0 mi SSE 5.8 mph - N/A   Light Drizzle
12:13 AM 48.2 °F - 48.2 °F 100% 29.66 in 10.0 mi SSE 5.8 mph - N/A   Light Drizzle
12:23 AM 48.2 °F - 48.2 °F 100% 29.66 in 9.0 mi South 3.5 mph - N/A Rain Light Rain
12:24 AM 48.2 °F - 48.2 °F 100% 29.66 in 9.0 mi South 3.5 mph - N/A   Overcast
12:26 AM 48.2 °F - 48.2 °F 100% 29.66 in 9.0 mi SSE 3.5 mph - N/A Rain Light Rain
12:58 AM 48.2 °F - 47.8 °F 99% 29.65 in 10.0 mi South 6.9 mph - 0.00 in   Light Drizzle
1:13 AM 48.2 °F - 48.2 °F 100% 29.65 in 10.0 mi South 8.1 mph - N/A   Overcast
1:15 AM 48.2 °F - 48.2 °F 100% 29.65 in 10.0 mi South 6.9 mph - N/A Rain Light Rain
1:27 AM 48.2 °F - 48.2 °F 100% 29.65 in 9.0 mi South 8.1 mph - N/A Rain Light Rain
1:37 AM 48.2 °F - 48.2 °F 100% 29.65 in 9.0 mi South 8.1 mph - N/A Rain Light Rain
1:54 AM 48.2 °F - 48.2 °F 100% 29.65 in 10.0 mi South 10.4 mph - N/A   Overcast
1:58 AM 48.2 °F - 48.0 °F 99% 29.64 in 10.0 mi South 9.2 mph - 0.02 in   Overcast
2:03 AM 48.2 °F - 48.2 °F 100% 29.64 in 10.0 mi South 9.2 mph - N/A   Overcast
2:06 AM 48.2 °F - 48.2 °F 100% 29.64 in 10.0 mi South 9.2 mph - N/A Rain Light Rain
2:11 AM 48.2 °F - 48.2 °F 100% 29.64 in 10.0 mi South 8.1 mph - N/A Rain Light Rain
2:26 AM 48.2 °F - 48.2 °F 100% 29.64 in 9.0 mi South 9.2 mph - N/A Rain Rain
2:31 AM 48.2 °F - 48.2 °F 100% 29.64 in 6.0 mi South 9.2 mph - N/A Rain Rain
2:35 AM 48.2 °F - 48.2 °F 100% 29.64 in 5.0 mi South 8.1 mph - N/A Rain Light Rain
2:39 AM 48.2 °F - 48.2 °F 100% 29.64 in 5.0 mi South 8.1 mph - N/A Rain Light Rain
2:44 AM 48.2 °F - 48.2 °F 100% 29.64 in 6.0 mi South 6.9 mph - N/A Rain Light Rain
2:49 AM 48.2 °F - 48.2 °F 100% 29.64 in 6.0 mi South 11.5 mph - N/A Rain Light Rain
2:58 AM 48.2 °F - 48.0 °F 99% 29.64 in 9.0 mi South 16.1 mph - 0.02 in Rain Light Rain
2:59 AM 48.2 °F - 48.2 °F 100% 29.64 in 10.0 mi South 15.0 mph - N/A Rain Light Rain
3:09 AM 48.2 °F - 48.2 °F 100% 29.64 in 8.0 mi SSW 10.4 mph - N/A Rain Light Rain
3:19 AM 48.2 °F - 48.2 °F 100% 29.64 in 9.0 mi SSW 12.7 mph - N/A Rain Light Rain
3:42 AM 48.2 °F - 48.2 °F 100% 29.64 in 8.0 mi SSW 12.7 mph - N/A Rain Light Rain
3:50 AM 48.2 °F - 48.2 °F 100% 29.64 in 5.0 mi SW 13.8 mph - N/A Rain Light Rain
3:52 AM 48.2 °F - 48.2 °F 100% 29.64 in 5.0 mi SW 12.7 mph - N/A Rain Light Rain
3:58 AM 48.0 °F - 47.8 °F 99% 29.64 in 7.0 mi SW 16.1 mph 20.7 mph 0.03 in Rain Light Rain
4:02 AM 48.2 °F - 48.2 °F 100% 29.64 in 9.0 mi SW 15.0 mph 20.7 mph N/A Rain Light Rain
4:05 AM 48.2 °F - 48.2 °F 100% 29.64 in 9.0 mi SW 16.1 mph - N/A Rain Rain
4:10 AM 48.2 °F - 48.2 °F 100% 29.64 in 7.0 mi SW 13.8 mph - N/A Rain Rain
4:25 AM 48.2 °F - 46.4 °F 93% 29.65 in 5.0 mi WSW 12.7 mph - N/A Rain Rain
4:35 AM 46.4 °F 40.4 °F 46.4 °F 100% 29.65 in 6.0 mi WSW 13.8 mph - N/A Rain Rain
4:58 AM 46.8 °F - 46.6 °F 99% 29.66 in 5.0 mi WSW 16.1 mph - 0.10 in Rain Rain
5:07 AM 46.4 °F 38.5 °F 44.6 °F 93% 29.67 in 5.0 mi WSW 21.9 mph - N/A Rain Light Rain
5:27 AM 46.4 °F 39.5 °F 44.6 °F 93% 29.67 in 4.0 mi WSW 17.3 mph 26.5 mph N/A Rain Light Rain
5:58 AM 45.7 °F 39.8 °F 44.4 °F 95% 29.68 in 10.0 mi SW 12.7 mph - 0.07 in Rain Light Rain
6:41 AM 44.6 °F 36.4 °F 42.8 °F 93% 29.70 in 10.0 mi SSW 20.7 mph - N/A   Mostly Cloudy
6:46 AM 44.6 °F 37.4 °F 42.8 °F 93% 29.70 in 10.0 mi SSW 16.1 mph 27.6 mph N/A Rain Light Rain
6:57 AM 44.6 °F 36.9 °F 42.8 °F 93% 29.70 in 10.0 mi SSW 18.4 mph 27.6 mph N/A   Mostly Cloudy
6:58 AM 44.6 °F 36.9 °F 42.8 °F 93% 29.71 in 10.0 mi SSW 18.4 mph 27.6 mph 0.00 in   Mostly Cloudy
7:03 AM 44.6 °F 36.6 °F 42.8 °F 93% 29.71 in 10.0 mi SSW 19.6 mph - N/A Rain Light Rain
7:11 AM 44.6 °F 36.6 °F 42.8 °F 93% 29.71 in 10.0 mi SW 19.6 mph - N/A   Mostly Cloudy
7:16 AM 44.6 °F 36.6 °F 42.8 °F 93% 29.71 in 10.0 mi SSW 19.6 mph 28.8 mph N/A   Light Drizzle
7:26 AM 44.6 °F 36.9 °F 42.8 °F 93% 29.72 in 10.0 mi SSW 18.4 mph 25.3 mph N/A   Mostly Cloudy
7:28 AM 44.6 °F 37.8 °F 41.0 °F 87% 29.72 in 10.0 mi SW 15.0 mph 25.3 mph N/A   Light Drizzle
7:37 AM 44.6 °F 36.9 °F 41.0 °F 87% 29.72 in 10.0 mi SSW 18.4 mph 25.3 mph N/A   Mostly Cloudy
7:43 AM 44.6 °F 38.1 °F 41.0 °F 87% 29.72 in 10.0 mi SSW 13.8 mph 25.3 mph N/A   Light Drizzle
7:58 AM 44.6 °F 36.9 °F 41.2 °F 88% 29.75 in 10.0 mi SSW 18.4 mph - 0.01 in   Light Drizzle
8:10 AM 44.6 °F 36.9 °F 41.0 °F 87% 29.74 in 10.0 mi SSW 18.4 mph 25.3 mph N/A   Mostly Cloudy
8:15 AM 44.6 °F 36.9 °F 41.0 °F 87% 29.74 in 10.0 mi SSW 18.4 mph 25.3 mph N/A   Light Drizzle
8:18 AM 44.6 °F 36.9 °F 41.0 °F 87% 29.74 in 10.0 mi SSW 18.4 mph 25.3 mph N/A   Scattered Clouds
8:19 AM 44.6 °F 37.2 °F 41.0 °F 87% 29.74 in 10.0 mi SSW 17.3 mph 25.3 mph N/A   Light Drizzle
8:39 AM 46.4 °F 38.5 °F 41.0 °F 81% 29.75 in 10.0 mi SSW 21.9 mph 31.1 mph N/A   Clear
8:46 AM 48.2 °F - 41.0 °F 76% 29.75 in 10.0 mi SW 21.9 mph 28.8 mph N/A Rain Light Rain
8:58 AM 48.0 °F - 40.8 °F 76% 29.77 in 10.0 mi SSW 25.3 mph 29.9 mph 0.00 in Rain Light Rain
9:48 AM 51.8 °F - 41.0 °F 67% 29.76 in 10.0 mi SW 28.8 mph 33.4 mph N/A Rain Light Rain
9:58 AM 50.9 °F - 39.9 °F 66% 29.78 in 10.0 mi SW 26.5 mph 34.5 mph 0.00 in Rain Light Rain
10:18 AM 51.8 °F - 41.0 °F 67% 29.77 in 10.0 mi SW 23.0 mph 31.1 mph N/A Rain Light Rain
10:38 AM 51.8 °F - 41.0 °F 67% 29.77 in 10.0 mi SW 20.7 mph 29.9 mph N/A Rain Light Rain
10:58 AM 53.2 °F - 40.5 °F 62% 29.78 in 10.0 mi SW 23.0 mph 31.1 mph 0.00 in Rain Light Rain
11:03 AM 53.6 °F - 39.2 °F 58% 29.78 in 10.0 mi SW 26.5 mph 31.1 mph N/A Rain Light Rain
11:58 AM 54.9 °F - 40.5 °F 58% 29.80 in 10.0 mi SW 21.9 mph 31.1 mph 0.00 in   Light Drizzle
12:58 PM 56.5 °F - 39.0 °F 52% 29.80 in 10.0 mi SW 21.9 mph 29.9 mph 0.00 in   Light Drizzle
1:43 PM 57.2 °F - 37.4 °F 48% 29.79 in 10.0 mi WSW 25.3 mph 32.2 mph N/A   Clear
1:53 PM 57.2 °F - 35.6 °F 44% 29.79 in 10.0 mi WSW 25.3 mph 31.1 mph N/A Rain Light Rain
1:58 PM 57.7 °F - 35.1 °F 43% 29.80 in 10.0 mi WSW 21.9 mph 29.9 mph 0.00 in Rain Light Rain
2:58 PM 58.6 °F - 32.4 °F 37% 29.80 in 10.0 mi WSW 23.0 mph 29.9 mph 0.00 in   Light Drizzle
3:48 PM 57.2 °F - 32.0 °F 38% 29.80 in 10.0 mi SW 24.2 mph 29.9 mph N/A   Clear
3:54 PM 57.2 °F - 32.0 °F 38% 29.80 in 10.0 mi SW 25.3 mph 29.9 mph N/A   Light Drizzle
3:58 PM 57.2 °F - 31.8 °F 38% 29.81 in 10.0 mi SW 23.0 mph 29.9 mph 0.00 in   Light Drizzle
4:04 PM 57.2 °F - 32.0 °F 38% 29.80 in 10.0 mi SW 19.6 mph - N/A   Clear
4:06 PM 57.2 °F - 32.0 °F 38% 29.80 in 10.0 mi WSW 19.6 mph 25.3 mph N/A   Light Drizzle
4:42 PM 55.4 °F - 35.6 °F 47% 29.80 in 10.0 mi SW 23.0 mph 32.2 mph N/A   Clear
4:58 PM 56.8 °F - 36.0 °F 46% 29.81 in 10.0 mi SW 20.7 mph 28.8 mph 0.00 in   Clear
5:00 PM 57.2 °F - 35.6 °F 44% 29.80 in 10.0 mi SW 21.9 mph 28.8 mph N/A Rain Light Rain
5:09 PM 57.2 °F - 33.8 °F 41% 29.80 in 10.0 mi SW 23.0 mph 31.1 mph N/A   Clear
5:25 PM 57.2 °F - 35.6 °F 44% 29.81 in 10.0 mi SSW 18.4 mph 27.6 mph N/A   Light Drizzle
5:58 PM 55.6 °F - 34.0 °F 44% 29.82 in 10.0 mi SW 21.9 mph 29.9 mph 0.00 in Rain Light Rain
6:25 PM 53.6 °F - 35.6 °F 51% 29.81 in 10.0 mi SSW 18.4 mph 25.3 mph N/A   Partly Cloudy
6:58 PM 53.6 °F - 34.9 °F 49% 29.83 in 10.0 mi SSW 13.8 mph - 0.00 in   Clear
7:58 PM 49.8 °F - 35.6 °F 58% 29.85 in 10.0 mi SW 10.4 mph - N/A   Clear
8:58 PM 47.3 °F - 34.5 °F 61% 29.87 in 10.0 mi SSW 10.4 mph - N/A   Clear
9:58 PM 45.5 °F 39.9 °F 34.5 °F 65% 29.88 in 10.0 mi SSW 11.5 mph - N/A   Clear
10:58 PM 43.2 °F 38.4 °F 36.1 °F 76% 29.89 in 10.0 mi South 8.1 mph - 0.00 in   Clear
11:58 PM 42.1 °F 35.7 °F 35.8 °F 78% 29.90 in 10.0 mi South 11.5 mph - 0.00 in   Clear